sat.trackr.live / text

‹ back to catalog

STARLINK-5262

NORAD 54207 · 2022-141BC

PAYLOAD ACTIVE UNKNOWN

§ Identity

Operator
Country
US
Launch date
2022-10-28
Launch site
AFWTR
Launch vehicle
Mass (kg)
RCS (m²)

Purposes: comms

External: N2YO · Heavens-Above · Gunter

§ Orbital elements

Epoch: 2026-05-24T23:59:37.648320Z

Period
95.44 min
Inclination
53.2146°
Eccentricity
0.0001320
Mean motion
15.08832066 rev/d
Perigee alt
538.9 km
Apogee alt
540.7 km
Semi-major
6,917.9 km
B*
9.9897e-5
RAAN
11.1584°
Arg perigee
90.2019°
Mean anomaly
269.9124°
Rev number
19,752

§ Raw data

STARLINK-52621 54207U 22141BC  26144.99974130  .00001302  00000+0  99897-4 0  99982 54207  53.2146  11.1584 0001320  90.2019 269.9124 15.08832066197524

JSON: /api/v1/satellites/54207 · /tle

For live sub-satellite position, see the globe view (requires WebGL).

§ Visibility from observer

Set your observer location to see the next 7 days of passes ≥ 10°. The values pass through the URL so the page stays shareable.

No JS? Fill the form by hand. The geolocation button needs JavaScript.